User: anonymous   Login
Location: Unspecified
(0.0000°N, 0.0000°E)
Time: 23:35:32
(UTC+00:00)
Language:

Vanguard 3 - Orbit

View from above orbital plane
View from above orbital plane
View from above satellite
View from above satellite

Ground track
Ground track

The orbit data is extracted from the following two-line orbital elements,

1 00020U 59007A   16210.42208351  .00000290  00000-0  10760-3 0  9996
2 00020  33.3507 199.5976 1667704 295.8862  47.9275 11.55219002 66330
Epoch (UTC): 28 July 2016 10:07:48
Eccentricity: 0.1667704
inclination: 33.3507°
perigee height: 509 km
apogee height: 3266 km
right ascension of ascending node: 199.5976°
argument of perigee: 295.8862°
revolutions per day: 11.55219002
mean anomaly at epoch: 47.9275°
orbit number at epoch: 6633

The dashed part of the orbit path shows where the satellite is in the earth's shadow,  

DLR